Location: Newark
(48.0000°N, 67.0000°E)
Time: 21:06:28
(UTC+00:00)

Vanguard 2 - Pass Details

Date: 26 February 2020
Orbit: 552 x 2938 km, 32.9° (Epoch: 09 April)

Event Time Altitude Azimuth Distance (km) Brightness Sun altitude
Exits shadow 01:45:57 - 261° (W) 4,909 11.0 -6.5°
Reaches altitude 10° 01:47:38 10° 256° (WSW) 4,614 10.9 -6.2°
Maximum altitude 01:58:55 32° 201° (SSW) 3,867 11.0 -4.3°
Drops below altitude 10° 02:13:01 10° 148° (SSE) 5,759 12.7 -2.0°
Sets 02:18:19 0° 140° (SE) 6,760 13.3 -1.2°
